Weather History for Ypsilanti, MI

Change the Weather History Date:

Monday, December 2, 2013

  Actual Average Record
Temperature  
Mean Temperature 35 °F -  
Max Temperature 42 °F 40 °F 67 °F (1982)
Min Temperature 27 °F 26 °F 4 °F (1976)
Degree Days  
Heating Degree Days 30    
Moisture  
Dew Point 25 °F    
Average Humidity 69    
Maximum Humidity 82    
Minimum Humidity 43    
Precipitation  
Precipitation 0.00 in - - ()
Sea Level Pressure  
Sea Level Pressure 29.94 in    
Wind  
Wind Speed 4 mph (North)    
Max Wind Speed 9 mph    
Max Gust Speed -    
Visibility 9 miles    
Events      
Averages and records for this station are not official NWS values.
T = Trace of Precipitation, MM = Missing Value Source: NWS Daily Summary

Daily Weather History Graph

Daily Weather History Graph

Search for Another Location

Airport:

Trip Planner

Search our weather history database for the weather conditions in past years. The results will help you decide how hot, cold, wet, or windy it might be!

Date:

Astronomy

Dec. 02, 2013 Rise Set
Actual Time 7:44 AM EST 5:02 PM EST
Civil Twilight 7:13 AM EST 5:33 PM EST
Nautical Twilight 6:38 AM EST 6:08 PM EST
Astronomical Twilight 6:04 AM EST 6:42 PM EST
Moon 7:07 AM EST (12/2) 5:05 PM EST (12/2)
Length of Visible Light 10h 20m
Length of Day
9h 17m
Waning Crescent, 0% of the Moon is Illuminated
Dec 2
Waning Crescent
Dec 2
New
Dec 9
First Quarter
Dec 17
Full
Dec 25
Last Quarter

Hourly Weather History & Observations

Time (EST) Temp. Windchill Dew Point Humidity Pressure Visibility Wind Dir Wind Speed Gust Speed Precip Events Conditions
12:01 AM 35.6 °F 30.7 °F 30.2 °F 81% 29.99 in 7.0 mi NNW 5.8 mph - N/A   Overcast
12:53 AM 37.0 °F 32.4 °F 30.9 °F 79% 29.99 in 7.0 mi NNW 5.8 mph - N/A   Overcast
1:15 AM 35.6 °F 30.7 °F 30.2 °F 81% 29.97 in 6.0 mi NNW 5.8 mph - N/A   Haze
1:28 AM 35.6 °F 30.7 °F 30.2 °F 81% 29.97 in 6.0 mi NNW 5.8 mph - N/A   Haze
1:53 AM 36.0 °F 33.3 °F 30.9 °F 82% 29.97 in 7.0 mi North 3.5 mph - N/A   Overcast
2:53 AM 33.1 °F 30.0 °F 28.0 °F 82% 29.97 in 7.0 mi NNW 3.5 mph - N/A   Mostly Cloudy
3:53 AM 33.1 °F 28.7 °F 28.0 °F 82% 29.97 in 6.0 mi NNW 4.6 mph - N/A   Haze
4:53 AM 34.0 °F 29.8 °F 28.9 °F 82% 29.97 in 8.0 mi NNW 4.6 mph - N/A   Overcast
5:53 AM 34.0 °F 31.0 °F 28.9 °F 82% 29.97 in 8.0 mi NNW 3.5 mph - N/A   Overcast
6:53 AM 33.1 °F - 28.0 °F 82% 29.96 in 8.0 mi Calm Calm - N/A   Overcast
7:53 AM 33.1 °F 30.0 °F 28.0 °F 82% 29.96 in 8.0 mi North 3.5 mph - N/A   Overcast
8:53 AM 35.1 °F 32.2 °F 28.9 °F 78% 29.97 in 8.0 mi North 3.5 mph - N/A   Overcast
9:53 AM 37.0 °F 32.4 °F 28.0 °F 70% 29.96 in 10.0 mi NNE 5.8 mph - N/A   Overcast
10:53 AM 37.9 °F - 26.1 °F 62% 29.97 in 10.0 mi Calm Calm - N/A   Overcast
11:53 AM 39.9 °F 33.9 °F 25.0 °F 55% 29.94 in 10.0 mi NE 9.2 mph - N/A   Overcast
12:53 PM 41.0 °F 35.8 °F 23.0 °F 49% 29.92 in 10.0 mi NE 8.1 mph - N/A   Overcast
1:53 PM 42.1 °F 37.7 °F 21.9 °F 45% 29.90 in 10.0 mi NE 6.9 mph - N/A   Scattered Clouds
2:53 PM 42.1 °F 39.2 °F 21.0 °F 43% 29.90 in 10.0 mi North 4.6 mph - N/A   Partly Cloudy
3:53 PM 39.9 °F 35.8 °F 21.0 °F 47% 29.90 in 10.0 mi North 5.8 mph - N/A   Clear
4:53 PM 37.9 °F - 19.9 °F 48% 29.90 in 10.0 mi Calm Calm - N/A   Clear
5:53 PM 34.0 °F - 19.9 °F 56% 29.92 in 10.0 mi Calm Calm - N/A   Clear
6:53 PM 32.0 °F 27.5 °F 21.9 °F 66% 29.91 in 10.0 mi ENE 4.6 mph - N/A   Clear
7:53 PM 33.1 °F 28.7 °F 21.9 °F 64% 29.91 in 10.0 mi ESE 4.6 mph - N/A   Clear
8:53 PM 33.1 °F - 21.9 °F 64% 29.93 in 10.0 mi Calm Calm - N/A   Clear
9:53 PM 30.0 °F - 21.0 °F 69% 29.93 in 10.0 mi Calm Calm - N/A   Clear
10:53 PM 28.0 °F - 21.0 °F 75% 29.93 in 10.0 mi Calm Calm - N/A   Clear
11:53 PM 27.0 °F - 21.0 °F 78% 29.92 in 10.0 mi Calm Calm - N/A   Clear